sat.trackr.live / text

‹ back to catalog

STARLINK-33936

NORAD 64005 · 2025-101M

PAYLOAD ACTIVE UNKNOWN

§ Identity

Operator
Country
US
Launch date
2025-05-14
Launch site
AFETR
Launch vehicle
Mass (kg)
RCS (m²)

Purposes: comms

External: N2YO · Heavens-Above · Gunter

§ Orbital elements

Epoch: 2026-09-20T21:56:08.618496Z

Period
94.27 min
Inclination
43.0049°
Eccentricity
0.0001483
Mean motion
15.27585411 rev/d
Perigee alt
482.0 km
Apogee alt
484.1 km
Semi-major
6,861.2 km
B*
5.0383e-4
RAAN
335.3220°
Arg perigee
269.9353°
Mean anomaly
90.1329°
Rev number
7,691

§ Raw data

STARLINK-339361 64005U 25101M   26263.91398864  .00013630  00000+0  50383-3 0  99952 64005  43.0049 335.3220 0001483 269.9353  90.1329 15.27585411 76914

JSON: /api/v1/satellites/64005 · /tle

For live sub-satellite position, see the globe view (requires WebGL).

§ Visibility from observer

Set your observer location to see the next 7 days of passes ≥ 10°. The values pass through the URL so the page stays shareable.

No JS? Fill the form by hand. The geolocation button needs JavaScript.